sat.trackr.live / text

‹ back to catalog

ONEWEB-0659

NORAD 54678 · 2022-166AN

PAYLOAD ACTIVE UNKNOWN

§ Identity

Operator
Country
UK
Launch date
2022-12-08
Launch site
AFETR
Launch vehicle
Mass (kg)
RCS (m²)

Purposes: comms

External: N2YO · Heavens-Above · Gunter

§ Orbital elements

Epoch: 2026-05-25T05:34:22.939680Z

Period
108.94 min
Inclination
87.9253°
Eccentricity
0.0001970
Mean motion
13.21827308 rev/d
Perigee alt
1,176.3 km
Apogee alt
1,179.2 km
Semi-major
7,555.9 km
B*
1.8575e-4
RAAN
248.5560°
Arg perigee
102.5051°
Mean anomaly
257.6303°
Rev number
16,849

§ Raw data

ONEWEB-06591 54678U 22166AN  26145.23220995  .00000090  00000+0  18575-3 0  99942 54678  87.9253 248.5560 0001970 102.5051 257.6303 13.21827308168496

JSON: /api/v1/satellites/54678 · /tle

For live sub-satellite position, see the globe view (requires WebGL).

§ Visibility from observer

Set your observer location to see the next 7 days of passes ≥ 10°. The values pass through the URL so the page stays shareable.

No JS? Fill the form by hand. The geolocation button needs JavaScript.